STARLINK-1283, 45389

Orbit data source: Space-Track

STARLINK-1283, 45389 is a payload satellite owned by SpaceX/Seattle (US) in LEO that was launched on Wed, 18 Mar 2020 UTC via an FALCON 9 launch vehicle from the Air Force Eastern Test Range (AFETR). Payload-class satellites include a variety of spacecraft equipped with specific instruments for various scientific and technological missions. These include communications satellites like Starlink; space stations such as the ISS; scientific satellites like the Hubble; Earth observation satellites from companies like Planet Labs, Umbra, and HawkEye 360; GPS; miniature CubeSats for education and research; and military/defense satellites.

Loading next visibility...
Identifier
45389, 2020-019AF
Orbit
LEO
Country
Flag of USUS
Related business
Manufacturer
SpaceX/Seattle
Mission
Operational Commercial Communications
Bus & Motor
STARLINK, Unknown motor
Mass
260 kg wet, ~248 kg dry
Launch date (UTC)
2020-03-18 (5 years ago)
Launch vehicle
FALCON 9
Launch site
Air Force Eastern Test Range (AFETR)
Object type
Payload
Rocket body
Debris
Shape & HBR
Box + 1 Pan, 4.4 m
Radar Cross Section
13.562 m², Large (>1 m²)

Expand to show TLE details & history
Last TLE update: 22 hours ago

TLE from 22 hours ago
0 STARLINK-1283
1 45389U 20019AF  25258.29109890 -.00000709  00000-0 -28708-4 0  9998
2 45389  53.0543 214.0133 0001311  91.4785 268.6354 15.06403243303575
Epoch: 2025-09-15T06:59Z
TLE epoch observation values (Epoch: 2025-09-15T06:59:10.944Z)
Latitude
-0.00006°
Longitude
114.71979°
Altitude
548.103 km
Speed
7.589 km/s
True Right ascension
14h 16m 03s
True Declination
0° 00' 00"
Sunlit
Object was in daylight at epoch
Visualization orbit readout
Latitude
Unknown
Longitude
Unknown
Altitude
Unknown
Speed
Unknown
Apparent Right ascension
Unknown
Apparent Declination
Unknown
Sunlit
N/A
Visualization observer readout
Local Sidereal Time
21:52:32
Azimuth
Unknown
Elevation
Unknown
Doppler factor
Unknown
Orbital elements
Apogee altitude
548.38 km
Perigee altitude
546.564 km
Semi-major axis
6,925.609 km
Eccentricity
0.00013
Inclination
53.0543°
RAAN
214.0133°
Arg. of periapsis
91.4785°
True anomaly
268.62038°
Mean anomaly
268.6354°
Eccentric anomaly
268.62789°
Mean motion
3.76579 °/min
Orbital period
95.6 mins
BSTAR
-0.000028708
Loading maneuver chart data...
Computing Atmospheric mass density...
Loading historical data...
Loading historical data...
Loading historical data...
Loading historical data...
Loading historical data...
Loading historical data...
Loading historical data...

Documentation

Showing up to 5 results
|